Terug naar catalogus

FENGYUN 1C DEB

ActiefSSO
NORAD 31359·DEBRIS·🇨🇳 China

Gelanceerd May 10, 1999 vanaf Taiyuan Satellite Launch Center

Loading…

Volgende Passages (komende 24 uur)

TLE

VersSource: Space-Track

Epoch: Sep 13, 2026, 13:15 UTC

1 31359U 99025BRP 26256.55245249  .00003849  00000-0  16488-2 0  9996
2 31359  99.0773   8.4223 0071499 223.5880 135.9635 14.24107952 25111

Volg FENGYUN 1C DEB in realtime met AllMySat

Download on the App Store